Time,TemperatureF,DewpointF,PressureIn,WindDirection,WindDirectionDegrees,WindSpeedMPH,WindSpeedGustMPH,Humidity,HourlyPrecipIn,Conditions,Clouds,dailyrainin,SoftwareType,DateUTC
2013-11-28 00:12:00,36.0,22.0,29.70,NNW,332,12.0,17.0,56,0.00,,,2.08,,2013-11-28 05:12:00,
2013-11-28 00:22:00,36.0,22.0,29.70,NNW,332,12.0,17.0,56,0.00,,,2.08,,2013-11-28 05:22:00,
2013-11-28 00:43:00,34.0,19.0,29.72,NNW,340,5.0,18.0,54,0.00,,,1.94,,2013-11-28 05:43:00,
2013-11-28 00:53:00,34.0,18.0,29.74,North,357,14.0,17.0,52,0.00,,,1.84,,2013-11-28 05:53:00,
2013-11-28 01:22:00,34.0,16.0,29.77,NNW,342,8.0,23.0,47,0.00,,,1.76,,2013-11-28 06:22:00,
2013-11-28 01:42:00,33.0,15.0,29.77,NW,319,9.0,20.0,47,0.00,,,1.72,,2013-11-28 06:42:00,
2013-11-28 01:52:00,33.0,15.0,29.78,WNW,290,8.0,12.0,48,0.00,,,1.63,,2013-11-28 06:52:00,
2013-11-28 02:22:00,32.0,14.0,29.80,WNW,295,3.0,19.0,47,0.00,,,1.43,,2013-11-28 07:22:00,
2013-11-28 02:32:00,32.0,14.0,29.80,WNW,295,3.0,19.0,47,0.00,,,1.43,,2013-11-28 07:32:00,
2013-11-28 02:42:00,32.0,14.0,29.80,WNW,295,3.0,19.0,47,0.00,,,1.43,,2013-11-28 07:42:00,
2013-11-28 02:52:00,32.0,14.0,29.82,NNW,346,12.0,14.0,47,0.00,,,1.22,,2013-11-28 07:52:00,
2013-11-28 03:02:00,32.0,14.0,29.82,NNW,346,12.0,14.0,47,0.00,,,1.22,,2013-11-28 08:02:00,
2013-11-28 03:22:00,32.0,15.0,29.85,West,276,10.0,17.0,48,0.00,,,1.04,,2013-11-28 08:22:00,
2013-11-28 03:42:00,32.0,15.0,29.86,NW,318,13.0,17.0,49,0.00,,,1.02,,2013-11-28 08:42:00,
2013-11-28 03:53:00,32.0,15.0,29.86,NW,318,13.0,17.0,49,0.00,,,1.02,,2013-11-28 08:53:00,
2013-11-28 04:22:00,31.0,13.0,29.90,NNW,339,19.0,23.0,47,0.00,,,0.87,,2013-11-28 09:22:00,
2013-11-28 04:43:00,31.0,14.0,29.92,NW,321,9.0,14.0,48,0.00,,,0.82,,2013-11-28 09:43:00,
2013-11-28 04:53:00,31.0,15.0,29.93,NW,315,10.0,14.0,51,0.00,,,0.79,,2013-11-28 09:53:00,
2013-11-28 05:23:00,31.0,15.0,29.96,NW,308,8.0,15.0,52,0.00,,,0.78,,2013-11-28 10:23:00,
2013-11-28 05:33:00,31.0,15.0,29.96,NW,308,8.0,15.0,52,0.00,,,0.78,,2013-11-28 10:33:00,
2013-11-28 05:43:00,31.0,15.0,29.96,NW,308,8.0,15.0,52,0.00,,,0.78,,2013-11-28 10:43:00,
2013-11-28 05:53:00,31.0,15.0,29.98,NW,307,8.0,15.0,50,0.00,,,0.46,,2013-11-28 10:53:00,
2013-11-28 06:22:00,31.0,15.0,30.01,North,0,2.0,9.0,50,0.00,,,0.36,,2013-11-28 11:22:00,
2013-11-28 06:42:00,30.0,13.0,30.03,WNW,285,3.0,13.0,49,0.00,,,0.34,,2013-11-28 11:42:00,
2013-11-28 06:52:00,30.0,13.0,30.03,WNW,285,3.0,13.0,49,0.00,,,0.34,,2013-11-28 11:52:00,
2013-11-28 07:02:00,30.0,13.0,30.03,WNW,285,3.0,13.0,49,0.00,,,0.34,,2013-11-28 12:02:00,
2013-11-28 07:22:00,30.0,12.0,30.07,NW,304,5.0,13.0,46,0.00,,,0.27,,2013-11-28 12:22:00,
2013-11-28 07:42:00,30.0,12.0,30.09,NW,323,6.0,9.0,46,0.00,,,0.27,,2013-11-28 12:42:00,
2013-11-28 07:52:00,30.0,12.0,30.09,NW,323,6.0,9.0,46,0.00,,,0.27,,2013-11-28 12:52:00,
2013-11-28 08:22:00,30.0,11.0,30.12,WNW,295,9.0,17.0,44,0.00,,,0.22,,2013-11-28 13:22:00,
2013-11-28 08:42:00,30.0,11.0,30.14,NNW,348,14.0,17.0,44,0.00,,,0.21,,2013-11-28 13:42:00,
2013-11-28 08:52:00,30.0,11.0,30.14,NNW,348,14.0,17.0,44,0.00,,,0.21,,2013-11-28 13:52:00,
2013-11-28 09:22:00,31.0,11.0,30.16,NNW,339,9.0,23.0,42,0.00,,,0.18,,2013-11-28 14:22:00,
2013-11-28 09:42:00,31.0,12.0,30.18,NNW,334,9.0,15.0,44,0.00,,,0.16,,2013-11-28 14:42:00,
2013-11-28 09:52:00,31.0,12.0,30.18,NNW,334,9.0,15.0,44,0.00,,,0.16,,2013-11-28 14:52:00,
2013-11-28 10:22:00,32.0,12.0,30.19,NW,307,8.0,16.0,42,0.00,,,0.13,,2013-11-28 15:22:00,
2013-11-28 10:44:00,33.0,13.0,30.19,NW,312,4.0,11.0,44,0.00,,,0.10,,2013-11-28 15:44:00,
2013-11-28 10:54:00,33.0,11.0,30.19,NW,310,12.0,22.0,39,0.00,,,0.10,,2013-11-28 15:54:00,
2013-11-28 11:03:00,33.0,11.0,30.19,NW,310,12.0,22.0,39,0.00,,,0.10,,2013-11-28 16:03:00,
2013-11-28 11:23:00,33.0,10.0,30.19,North,355,12.0,18.0,37,0.00,,,0.09,,2013-11-28 16:23:00,
2013-11-28 11:53:00,33.0,7.0,30.19,WNW,299,17.0,18.0,33,0.00,,,0.09,,2013-11-28 16:53:00,
2013-11-28 12:12:00,34.0,7.0,30.21,NNW,332,8.0,20.0,32,0.00,,,0.09,,2013-11-28 17:12:00,
2013-11-28 12:23:00,34.0,7.0,30.21,NNW,332,8.0,20.0,32,0.00,,,0.09,,2013-11-28 17:23:00,
2013-11-28 12:42:00,35.0,7.0,30.21,NNW,328,12.0,14.0,31,0.00,,,0.09,,2013-11-28 17:42:00,
2013-11-28 12:52:00,35.0,7.0,30.21,NNW,328,12.0,14.0,31,0.00,,,0.09,,2013-11-28 17:52:00,
2013-11-28 13:12:00,35.0,7.0,30.21,NW,326,12.0,17.0,30,0.00,,,0.09,,2013-11-28 18:12:00,
2013-11-28 13:22:00,35.0,7.0,30.21,NW,326,12.0,17.0,30,0.00,,,0.09,,2013-11-28 18:22:00,
2013-11-28 13:42:00,35.0,7.0,30.21,North,355,11.0,14.0,31,0.00,,,0.09,,2013-11-28 18:42:00,
2013-11-28 13:52:00,35.0,6.0,30.21,North,349,8.0,14.0,29,0.00,,,0.09,,2013-11-28 18:52:00,
2013-11-28 14:02:00,35.0,6.0,30.21,North,349,8.0,14.0,29,0.00,,,0.09,,2013-11-28 19:02:00,
2013-11-28 14:11:00,35.0,6.0,30.21,North,349,8.0,14.0,29,0.00,,,0.09,,2013-11-28 19:11:00,
2013-11-28 14:22:00,35.0,6.0,30.21,North,349,8.0,14.0,29,0.00,,,0.09,,2013-11-28 19:22:00,
2013-11-28 14:42:00,35.0,6.0,30.23,NW,305,8.0,10.0,29,0.00,,,0.07,,2013-11-28 19:42:00,
2013-11-28 14:52:00,35.0,5.0,30.23,North,1,8.0,12.0,28,0.00,,,0.07,,2013-11-28 19:52:00,
2013-11-28 15:01:00,35.0,5.0,30.23,North,1,8.0,12.0,28,0.00,,,0.07,,2013-11-28 20:01:00,
2013-11-28 15:22:00,35.0,6.0,30.24,WNW,293,8.0,10.0,29,0.00,,,0.06,,2013-11-28 20:22:00,
2013-11-28 15:32:00,35.0,6.0,30.24,WNW,293,8.0,10.0,29,0.00,,,0.06,,2013-11-28 20:32:00,
2013-11-28 15:52:00,35.0,6.0,30.27,NW,323,5.0,9.0,29,0.00,,,0.05,,2013-11-28 20:52:00,
2013-11-28 16:11:00,34.0,5.0,30.28,NW,314,4.0,8.0,29,0.00,,,0.04,,2013-11-28 21:11:00,
2013-11-28 16:21:00,34.0,5.0,30.28,NW,314,4.0,8.0,29,0.00,,,0.04,,2013-11-28 21:21:00,
2013-11-28 16:43:00,34.0,7.0,30.29,WNW,292,4.0,6.0,31,0.00,,,0.04,,2013-11-28 21:43:00,
2013-11-28 16:53:00,33.0,6.0,30.29,NW,324,7.0,8.0,32,0.00,,,0.03,,2013-11-28 21:53:00,
2013-11-28 17:13:00,33.0,6.0,30.31,North,349,4.0,10.0,32,0.00,,,0.02,,2013-11-28 22:13:00,
2013-11-28 17:23:00,33.0,6.0,30.31,North,349,4.0,10.0,32,0.00,,,0.02,,2013-11-28 22:23:00,
2013-11-28 17:42:00,32.0,7.0,30.33,NW,305,3.0,5.0,34,0.00,,,0.02,,2013-11-28 22:42:00,
2013-11-28 17:53:00,32.0,7.0,30.33,NW,316,3.0,6.0,34,0.00,,,0.02,,2013-11-28 22:53:00,
2013-11-28 18:22:00,32.0,7.0,30.35,NW,312,3.0,8.0,35,0.00,,,0.02,,2013-11-28 23:22:00,
2013-11-28 18:42:00,32.0,8.0,30.37,NW,323,3.0,5.0,36,0.00,,,0.01,,2013-11-28 23:42:00,
2013-11-28 18:52:00,32.0,8.0,30.37,NW,323,3.0,5.0,36,0.00,,,0.01,,2013-11-28 23:52:00,
2013-11-28 19:22:00,31.0,8.0,30.38,NNW,329,0.0,4.0,38,0.00,,,0.00,,2013-11-29 00:22:00,
2013-11-28 19:52:00,31.0,10.0,30.40,North,352,2.0,4.0,40,0.00,,,0.00,,2013-11-29 00:52:00,
2013-11-28 20:22:00,30.0,9.0,30.40,North,351,0.0,3.0,40,0.00,,,0.00,,2013-11-29 01:22:00,
2013-11-28 20:42:00,31.0,11.0,30.41,North,354,0.0,0.0,42,0.00,,,0.00,,2013-11-29 01:42:00,
2013-11-28 20:52:00,31.0,11.0,30.41,North,354,0.0,0.0,42,0.00,,,0.00,,2013-11-29 01:52:00,
2013-11-28 21:02:00,31.0,11.0,30.41,North,354,0.0,0.0,42,0.00,,,0.00,,2013-11-29 02:02:00,
2013-11-28 21:12:00,31.0,11.0,30.41,North,354,0.0,0.0,42,0.00,,,0.00,,2013-11-29 02:12:00,
2013-11-28 21:52:00,31.0,10.0,30.42,North,351,1.0,3.0,41,0.00,,,0.00,,2013-11-29 02:52:00,
2013-11-28 22:21:00,31.0,10.0,30.42,North,349,0.0,2.0,41,0.00,,,0.00,,2013-11-29 03:21:00,
2013-11-28 22:43:00,32.0,11.0,30.43,North,349,0.0,2.0,41,0.00,,,0.00,,2013-11-29 03:43:00,
2013-11-28 22:53:00,32.0,11.0,30.43,North,349,0.0,2.0,41,0.00,,,0.00,,2013-11-29 03:53:00,
2013-11-28 23:03:00,32.0,11.0,30.43,North,349,0.0,2.0,41,0.00,,,0.00,,2013-11-29 04:03:00,
2013-11-28 23:13:00,32.0,11.0,30.43,North,349,0.0,2.0,41,0.00,,,0.00,,2013-11-29 04:13:00,
2013-11-28 23:43:00,32.0,11.0,30.44,NW,323,0.0,2.0,41,0.00,,,0.00,,2013-11-29 04:43:00,
2013-11-28 23:52:00,32.0,12.0,30.44,WSW,239,0.0,0.0,42,0.00,,,0.00,,2013-11-29 04:52:00,